{"data":{"norad_id":62635,"intl_designator":"2025-009AC","name":"GARAI-A","alt_names":[],"object_type":"PAYLOAD","status":"ACTIVE","operator":null,"country":"SPN","launch_date":"2025-01-14","launch_site_code":"AFWTR","launch_vehicle":null,"mission":null,"orbit_class":"UNKNOWN","rcs_meters":null,"size_class":null,"mass_kg":null,"dimensions":null,"purposes":[],"wikipedia_slug":null,"has_3d_model":false,"image_url":null,"decayed_at":null,"tle_current":{"epoch":"2026-05-25T04:08:43.598112Z","epoch_age_seconds":70497,"freshness":"FRESH","line1":"1 62635U 25009AC  26145.17272683  .00006476  00000+0  31297-3 0  9999","line2":"2 62635  97.4001 225.4241 0003892  74.4703 285.6961 15.18960452 75282","mean_motion":15.18960452,"eccentricity":0.0003892,"inclination_deg":97.4001,"raan_deg":225.4241,"arg_perigee_deg":74.4703,"mean_anomaly_deg":285.6961,"bstar":0.00031297,"rev_number":7528,"period_min":94.801678220389,"perigee_km":506.30063254101,"apogee_km":511.6615652692,"semimajor_km":6887.1180989051,"source":"CELESTRAK","updated_at":"2026-05-25T13:38:03.133802Z"}}}